| time (UTC) | temp C | wind direction | speed KPH | gust KPH | rain 1hr cm | rain 24hr cm | rain mn cm | humidity % | barometer mb |
| 20260502170104 | 9 | 342 | 0.0 | 0.0 | 0.00 | 0.08 | 0.08 | 45 | 1017.7 |
| 20260502164103 | 8 | 259 | 0.0 | 0.0 | 0.00 | 0.08 | 0.08 | 48 | 1017.7 |
| 20260502163604 | 8 | 296 | 0.0 | 0.0 | 0.00 | 0.08 | 0.08 | 49 | 1017.8 |
| 20260502163104 | 8 | 253 | 0.0 | 0.0 | 0.00 | 0.08 | 0.08 | 49 | 1017.8 |
| 20260502162604 | 8 | 280 | 0.0 | 0.0 | 0.00 | 0.08 | 0.08 | 50 | 1017.8 |
| 20260502162104 | 8 | 270 | 0.0 | 0.0 | 0.00 | 0.08 | 0.08 | 51 | 1017.8 |
| 20260502160604 | 8 | 1 | 0.0 | 0.0 | 0.00 | 0.08 | 0.08 | 56 | 1017.9 |
| 20260502152103 | 6 | 3 | 0.0 | 0.0 | 0.00 | 0.08 | 0.08 | 62 | 1017.8 |
| 20260502151604 | 6 | 328 | 0.0 | 0.0 | 0.00 | 0.08 | 0.08 | 62 | 1017.8 |
| 20260502151104 | 6 | 298 | 0.0 | 0.0 | 0.00 | 0.08 | 0.08 | 63 | 1017.8 |
| 20260502150604 | 6 | 351 | 0.0 | 0.0 | 0.00 | 0.08 | 0.08 | 64 | 1017.8 |
| 20260502150104 | 6 | 313 | 0.0 | 0.0 | 0.00 | 0.08 | 0.08 | 65 | 1017.7 |
| 20260502140104 | 7 | 39 | 0.0 | 0.0 | 0.00 | 0.10 | 0.08 | 69 | 1017.6 |
| 20260502130604 | 6 | 324 | 0.0 | 0.0 | 0.00 | 0.10 | 0.08 | 85 | 1017.9 |
| 20260502130104 | 6 | 329 | 0.0 | 0.0 | 0.00 | 0.10 | 0.08 | 85 | 1017.9 |
| 20260502123604 | 5 | 301 | 0.0 | 0.0 | 0.00 | 0.10 | 0.08 | 87 | 1017.8 |
| 20260502123104 | 5 | 310 | 0.0 | 0.0 | 0.00 | 0.10 | 0.08 | 87 | 1017.8 |
| 20260502122604 | 4 | 337 | 0.0 | 0.0 | 0.00 | 0.10 | 0.08 | 87 | 1017.8 |
| 20260502122103 | 4 | 337 | 0.0 | 0.0 | 0.00 | 0.10 | 0.08 | 87 | 1017.8 |
| 20260502121603 | 4 | 310 | 0.0 | 0.0 | 0.00 | 0.10 | 0.08 | 87 | 1017.8 |
| 20260502121104 | 4 | 327 | 0.0 | 0.0 | 0.00 | 0.10 | 0.08 | 87 | 1017.8 |
| 20260502120104 | 3 | 0 | 0.0 | 0.0 | 0.00 | 0.10 | 0.08 | 87 | 1017.7 |
| 20260502115604 | 3 | 0 | 0.0 | 0.0 | 0.00 | 0.10 | 0.08 | 87 | 1017.6 |
| 20260502115104 | 3 | 0 | 0.0 | 0.0 | 0.00 | 0.10 | 0.08 | 86 | 1017.7 |
| 20260502114604 | 3 | 0 | 0.0 | 0.0 | 0.00 | 0.10 | 0.08 | 86 | 1017.7 |
| 20260502114103 | 3 | 0 | 0.0 | 0.0 | 0.00 | 0.10 | 0.08 | 86 | 1017.6 |
| 20260502113104 | 3 | 0 | 0.0 | 0.0 | 0.00 | 0.10 | 0.08 | 86 | 1017.6 |
| 20260502112603 | 3 | 0 | 0.0 | 0.0 | 0.00 | 0.10 | 0.08 | 86 | 1017.5 |
| 20260502112104 | 3 | 0 | 0.0 | 0.0 | 0.00 | 0.10 | 0.08 | 86 | 1017.4 |
| 20260502111603 | 3 | 0 | 0.0 | 0.0 | 0.00 | 0.10 | 0.08 | 85 | 1017.3 |
| 20260502111104 | 3 | 0 | 0.0 | 0.0 | 0.00 | 0.10 | 0.08 | 85 | 1017.3 |
| 20260502110604 | 3 | 0 | 0.0 | 0.0 | 0.00 | 0.10 | 0.08 | 85 | 1017.3 |
| 20260502110104 | 3 | 0 | 0.0 | 0.0 | 0.00 | 0.10 | 0.08 | 85 | 1017.3 |
| 20260502105604 | 3 | 0 | 0.0 | 0.0 | 0.00 | 0.10 | 0.08 | 85 | 1017.3 |
| 20260502105103 | 3 | 0 | 0.0 | 0.0 | 0.00 | 0.10 | 0.08 | 85 | 1017.3 |
| 20260502104104 | 3 | 0 | 0.0 | 0.0 | 0.00 | 0.10 | 0.08 | 85 | 1017.2 |
| 20260502103604 | 3 | 0 | 0.0 | 0.0 | 0.00 | 0.10 | 0.08 | 85 | 1017.2 |
| 20260502103103 | 3 | 0 | 0.0 | 0.0 | 0.00 | 0.10 | 0.08 | 85 | 1017.2 |
| 20260502102604 | 3 | 0 | 0.0 | 0.0 | 0.00 | 0.10 | 0.08 | 85 | 1017.3 |
| 20260502102104 | 3 | 0 | 0.0 | 0.0 | 0.00 | 0.10 | 0.08 | 85 | 1017.3 |
| 20260502101604 | 3 | 0 | 0.0 | 0.0 | 0.00 | 0.10 | 0.08 | 85 | 1017.3 |
| 20260502101104 | 3 | 0 | 0.0 | 0.0 | 0.00 | 0.10 | 0.08 | 85 | 1017.3 |
| 20260502100604 | 3 | 0 | 0.0 | 0.0 | 0.00 | 0.10 | 0.08 | 85 | 1017.3 |
| 20260502091104 | 3 | 0 | 0.0 | 0.0 | 0.03 | 0.10 | 0.08 | 85 | 1016.9 |
| 20260502090604 | 3 | 0 | 0.0 | 0.0 | 0.03 | 0.10 | 0.08 | 84 | 1016.8 |
| 20260502090103 | 3 | 0 | 0.0 | 0.0 | 0.03 | 0.10 | 0.08 | 84 | 1016.8 |
| 20260502080104 | 3 | 0 | 0.0 | 0.0 | 0.00 | 0.08 | 0.05 | 83 | 1016.7 |
| 20260502065606 | 3 | 0 | 0.0 | 0.0 | 0.03 | 0.10 | 0.05 | 82 | 1016.6 |
| 20260502065105 | 3 | 0 | 0.0 | 0.0 | 0.03 | 0.10 | 0.05 | 82 | 1016.6 |
| 20260502064605 | 3 | 0 | 0.0 | 0.0 | 0.03 | 0.10 | 0.05 | 82 | 1016.7 |
| 20260502064106 | 3 | 0 | 0.0 | 0.0 | 0.03 | 0.10 | 0.05 | 82 | 1016.7 |
| 20260502063605 | 3 | 0 | 0.0 | 0.0 | 0.03 | 0.10 | 0.05 | 82 | 1016.7 |
| 20260502063105 | 3 | 0 | 0.0 | 0.0 | 0.05 | 0.10 | 0.05 | 81 | 1016.7 |
| 20260502062606 | 3 | 0 | 0.0 | 0.0 | 0.05 | 0.10 | 0.05 | 81 | 1016.7 |
| 20260502062106 | 4 | 0 | 0.0 | 0.0 | 0.05 | 0.10 | 0.05 | 81 | 1016.8 |
| 20260502061605 | 4 | 0 | 0.0 | 0.0 | 0.03 | 0.08 | 0.03 | 81 | 1016.8 |
| 20260502061105 | 4 | 0 | 0.0 | 0.0 | 0.03 | 0.08 | 0.03 | 81 | 1016.9 |
| 20260502060605 | 4 | 0 | 0.0 | 0.0 | 0.03 | 0.08 | 0.03 | 81 | 1017.0 |
| 20260502060106 | 4 | 0 | 0.0 | 0.0 | 0.03 | 0.08 | 0.03 | 81 | 1017.0 |
| 20260502055606 | 4 | 0 | 0.0 | 0.0 | 0.03 | 0.08 | 0.03 | 80 | 1017.1 |
| 20260502055105 | 4 | 0 | 0.0 | 0.0 | 0.03 | 0.08 | 0.03 | 80 | 1017.2 |
| 20260502054606 | 5 | 358 | 0.0 | 0.0 | 0.03 | 0.08 | 0.03 | 80 | 1017.2 |
| 20260502054106 | 5 | 359 | 0.0 | 0.0 | 0.03 | 0.08 | 0.03 | 80 | 1017.2 |
| 20260502053605 | 5 | 334 | 0.0 | 0.0 | 0.03 | 0.08 | 0.03 | 80 | 1017.2 |
| 20260502053106 | 5 | 40 | 0.0 | 0.0 | 0.00 | 0.05 | 0.00 | 80 | 1017.2 |
| 20260502052605 | 5 | 44 | 0.0 | 0.0 | 0.00 | 0.05 | 0.00 | 80 | 1017.2 |
| 20260502052105 | 5 | 44 | 0.0 | 0.0 | 0.00 | 0.05 | 0.00 | 79 | 1017.2 |
| 20260502051605 | 5 | 44 | 0.0 | 0.0 | 0.00 | 0.05 | 0.00 | 79 | 1017.2 |
| 20260502051106 | 5 | 44 | 0.0 | 0.0 | 0.00 | 0.05 | 0.00 | 79 | 1017.1 |
| 20260502050606 | 5 | 47 | 0.0 | 0.0 | 0.00 | 0.05 | 0.00 | 78 | 1017.0 |
| 20260502045605 | 5 | 49 | 0.0 | 0.0 | 0.00 | 0.05 | 0.00 | 78 | 1016.9 |
| 20260502045105 | 5 | 49 | 0.0 | 0.0 | 0.00 | 0.05 | 0.00 | 78 | 1016.9 |
| 20260502044605 | 5 | 49 | 0.0 | 0.0 | 0.00 | 0.05 | 0.00 | 77 | 1016.8 |
| 20260502043605 | 5 | 47 | 0.0 | 0.0 | 0.00 | 0.05 | 0.00 | 77 | 1016.8 |
| 20260502042105 | 5 | 44 | 0.0 | 0.0 | 0.00 | 0.05 | 0.00 | 76 | 1016.6 |
| 20260502041606 | 5 | 63 | 0.0 | 0.0 | 0.00 | 0.05 | 0.00 | 77 | 1016.6 |
| 20260502041105 | 6 | 51 | 0.0 | 0.0 | 0.00 | 0.05 | 0.00 | 77 | 1016.6 |
| 20260502040105 | 6 | 59 | 0.0 | 0.0 | 0.00 | 0.05 | 0.00 | 78 | 1016.4 |
| 20260502035105 | 6 | 57 | 0.0 | 0.0 | 0.00 | 0.05 | 0.05 | 79 | 1016.2 |
| 20260502034605 | 6 | 57 | 0.0 | 0.0 | 0.00 | 0.05 | 0.05 | 79 | 1016.2 |
| 20260502034105 | 6 | 91 | 0.0 | 0.0 | 0.00 | 0.05 | 0.05 | 79 | 1016.2 |
| 20260502033605 | 6 | 96 | 0.0 | 0.0 | 0.00 | 0.05 | 0.05 | 80 | 1016.2 |
| 20260502033105 | 6 | 99 | 0.0 | 0.0 | 0.00 | 0.05 | 0.05 | 80 | 1016.1 |
| 20260502032606 | 6 | 96 | 0.0 | 0.0 | 0.00 | 0.05 | 0.05 | 80 | 1016.1 |
| 20260502031606 | 6 | 118 | 0.0 | 0.0 | 0.00 | 0.05 | 0.05 | 79 | 1016.1 |
| 20260502031105 | 6 | 112 | 0.0 | 0.0 | 0.00 | 0.05 | 0.05 | 80 | 1016.1 |
| 20260502030605 | 6 | 98 | 0.0 | 0.0 | 0.00 | 0.05 | 0.05 | 79 | 1016.1 |
| 20260502030106 | 6 | 107 | 0.0 | 0.0 | 0.00 | 0.05 | 0.05 | 79 | 1016.1 |
| 20260502025605 | 6 | 115 | 0.0 | 0.0 | 0.00 | 0.05 | 0.05 | 79 | 1016.0 |
| 20260502025105 | 6 | 98 | 0.0 | 0.0 | 0.00 | 0.05 | 0.05 | 79 | 1016.0 |
| 20260502023606 | 6 | 98 | 0.0 | 0.0 | 0.00 | 0.05 | 0.05 | 78 | 1016.0 |
| 20260502023105 | 6 | 98 | 0.0 | 0.0 | 0.00 | 0.05 | 0.05 | 78 | 1016.1 |
| 20260502022605 | 6 | 98 | 0.0 | 0.0 | 0.00 | 0.05 | 0.05 | 77 | 1016.1 |
| 20260502022105 | 7 | 149 | 0.0 | 0.0 | 0.00 | 0.05 | 0.05 | 77 | 1016.1 |
| 20260502021605 | 7 | 155 | 0.0 | 0.0 | 0.00 | 0.05 | 0.05 | 77 | 1016.1 |
| 20260502021105 | 7 | 138 | 0.0 | 0.0 | 0.00 | 0.05 | 0.05 | 77 | 1016.0 |
| 20260502020105 | 7 | 109 | 0.0 | 0.0 | 0.00 | 0.05 | 0.05 | 76 | 1015.7 |
| 20260502015605 | 7 | 108 | 0.0 | 0.0 | 0.00 | 0.05 | 0.05 | 75 | 1015.6 |
| 20260502014606 | 7 | 143 | 0.0 | 0.0 | 0.00 | 0.05 | 0.05 | 74 | 1015.6 |
| 20260502014105 | 7 | 90 | 0.0 | 0.0 | 0.00 | 0.05 | 0.05 | 73 | 1015.5 |
| 20260502013605 | 7 | 90 | 0.0 | 0.0 | 0.00 | 0.05 | 0.05 | 73 | 1015.4 |
| 20260502013105 | 7 | 89 | 0.0 | 0.0 | 0.00 | 0.05 | 0.05 | 72 | 1015.4 |
| 20260502012605 | 7 | 89 | 0.0 | 0.0 | 0.00 | 0.05 | 0.05 | 72 | 1015.5 |
| 20260502012105 | 7 | 90 | 0.0 | 0.0 | 0.00 | 0.05 | 0.05 | 71 | 1015.4 |
| 20260502011605 | 7 | 90 | 0.0 | 0.0 | 0.00 | 0.05 | 0.05 | 71 | 1015.3 |
| 20260502011106 | 7 | 90 | 0.0 | 0.0 | 0.00 | 0.05 | 0.05 | 71 | 1015.2 |
| 20260502010605 | 7 | 89 | 0.0 | 0.0 | 0.00 | 0.05 | 0.05 | 70 | 1015.2 |
| 20260502010105 | 7 | 84 | 0.0 | 0.0 | 0.00 | 0.05 | 0.05 | 70 | 1015.0 |
| 20260502005605 | 8 | 93 | 0.0 | 0.0 | 0.00 | 0.05 | 0.05 | 68 | 1015.0 |
| 20260502004605 | 8 | 58 | 0.0 | 0.0 | 0.00 | 0.05 | 0.05 | 66 | 1015.0 |
| 20260502004105 | 8 | 9 | 0.0 | 0.0 | 0.00 | 0.05 | 0.05 | 66 | 1015.0 |
| 20260502003605 | 8 | 9 | 0.0 | 0.0 | 0.00 | 0.05 | 0.05 | 65 | 1015.0 |
| 20260502003106 | 8 | 9 | 0.0 | 0.0 | 0.00 | 0.05 | 0.05 | 65 | 1014.9 |
| 20260502002606 | 8 | 9 | 0.0 | 0.0 | 0.00 | 0.05 | 0.05 | 65 | 1014.9 |
| 20260502001605 | 8 | 19 | 0.0 | 0.0 | 0.00 | 0.05 | 0.05 | 65 | 1014.8 |
| 20260502001105 | 8 | 15 | 0.0 | 0.0 | 0.00 | 0.05 | 0.05 | 65 | 1014.7 |
| 20260502000605 | 8 | 325 | 0.0 | 0.0 | 0.00 | 0.05 | 0.05 | 65 | 1014.6 |
| 20260501235605 | 8 | 320 | 0.0 | 0.0 | 0.00 | 0.05 | 0.05 | 65 | 1014.5 |
| 20260501235105 | 8 | 302 | 0.0 | 0.0 | 0.00 | 0.05 | 0.05 | 65 | 1014.4 |
| 20260501234105 | 9 | 309 | 0.0 | 0.0 | 0.00 | 0.05 | 0.05 | 64 | 1014.4 |
| 20260501233605 | 9 | 309 | 0.0 | 0.0 | 0.00 | 0.05 | 0.05 | 64 | 1014.4 |
| 20260501233105 | 9 | 299 | 0.0 | 0.0 | 0.00 | 0.05 | 0.05 | 63 | 1014.4 |
| 20260501232605 | 9 | 296 | 0.0 | 0.0 | 0.00 | 0.05 | 0.05 | 62 | 1014.4 |
| 20260501231605 | 9 | 352 | 0.0 | 0.0 | 0.00 | 0.05 | 0.05 | 59 | 1014.4 |
| 20260501231105 | 9 | 7 | 0.0 | 0.0 | 0.00 | 0.05 | 0.05 | 59 | 1014.2 |
| 20260501230605 | 9 | 13 | 0.0 | 0.0 | 0.00 | 0.05 | 0.05 | 59 | 1014.0 |
| 20260501230106 | 9 | 13 | 0.0 | 0.0 | 0.00 | 0.05 | 0.05 | 59 | 1014.1 |
| 20260501225605 | 9 | 13 | 0.0 | 0.0 | 0.00 | 0.05 | 0.05 | 59 | 1014.1 |
| 20260501225106 | 9 | 13 | 0.0 | 0.0 | 0.00 | 0.05 | 0.05 | 59 | 1014.0 |
| 20260501224605 | 9 | 13 | 0.0 | 0.0 | 0.00 | 0.05 | 0.05 | 59 | 1014.0 |
| 20260501222605 | 10 | 17 | 0.0 | 0.0 | 0.00 | 0.05 | 0.05 | 59 | 1014.2 |
| 20260501222105 | 10 | 15 | 0.0 | 0.0 | 0.00 | 0.05 | 0.05 | 58 | 1014.2 |
| 20260501221605 | 10 | 15 | 0.0 | 0.0 | 0.00 | 0.05 | 0.05 | 57 | 1014.0 |
| 20260501220604 | 10 | 350 | 0.0 | 0.0 | 0.00 | 0.05 | 0.05 | 56 | 1013.9 |
| 20260501215604 | 10 | 348 | 0.0 | 0.0 | 0.00 | 0.05 | 0.05 | 57 | 1013.8 |
| 20260501215105 | 10 | 30 | 0.0 | 0.0 | 0.00 | 0.05 | 0.05 | 58 | 1013.8 |
| 20260501214605 | 10 | 21 | 0.0 | 0.0 | 0.00 | 0.05 | 0.05 | 60 | 1013.8 |
| 20260501214105 | 10 | 22 | 0.0 | 0.0 | 0.00 | 0.05 | 0.05 | 60 | 1013.8 |
| 20260501213605 | 10 | 22 | 0.0 | 0.0 | 0.00 | 0.05 | 0.05 | 62 | 1013.8 |
| 20260501213105 | 10 | 30 | 0.0 | 0.0 | 0.00 | 0.05 | 0.05 | 63 | 1013.8 |
| 20260501212605 | 10 | 30 | 0.0 | 0.0 | 0.00 | 0.05 | 0.05 | 63 | 1013.7 |
| 20260501212105 | 10 | 38 | 0.0 | 0.0 | 0.00 | 0.05 | 0.05 | 64 | 1013.7 |
| 20260501211605 | 10 | 38 | 0.0 | 0.0 | 0.00 | 0.05 | 0.05 | 64 | 1013.6 |
| 20260501210604 | 10 | 182 | 0.0 | 0.0 | 0.00 | 0.05 | 0.05 | 63 | 1013.3 |
| 20260501210105 | 10 | 182 | 0.0 | 0.0 | 0.00 | 0.05 | 0.05 | 62 | 1013.3 |
| 20260501205605 | 10 | 176 | 0.0 | 0.0 | 0.00 | 0.05 | 0.05 | 61 | 1013.3 |
| 20260501204105 | 10 | 104 | 0.0 | 0.0 | 0.00 | 0.05 | 0.05 | 59 | 1013.3 |
| 20260501203604 | 10 | 104 | 0.0 | 0.0 | 0.00 | 0.05 | 0.05 | 59 | 1013.3 |
| 20260501203105 | 10 | 104 | 0.0 | 0.0 | 0.00 | 0.05 | 0.05 | 58 | 1013.3 |
| 20260501202605 | 10 | 104 | 0.0 | 0.0 | 0.00 | 0.05 | 0.05 | 60 | 1013.3 |
| 20260501201605 | 10 | 104 | 1.6 | 1.6 | 0.00 | 0.05 | 0.05 | 61 | 1013.3 |
| 20260501201105 | 10 | 103 | 1.6 | 4.8 | 0.00 | 0.05 | 0.05 | 61 | 1013.3 |
| 20260501200605 | 10 | 100 | 1.6 | 4.8 | 0.00 | 0.05 | 0.05 | 62 | 1013.3 |
| 20260501200105 | 10 | 117 | 1.6 | 4.8 | 0.00 | 0.05 | 0.05 | 61 | 1013.3 |
| 20260501195605 | 10 | 111 | 3.2 | 4.8 | 0.00 | 0.05 | 0.05 | 60 | 1013.2 |
| 20260501195105 | 10 | 178 | 1.6 | 4.8 | 0.00 | 0.05 | 0.05 | 61 | 1013.2 |
| 20260501194605 | 10 | 188 | 1.6 | 4.8 | 0.00 | 0.05 | 0.05 | 61 | 1013.3 |
| 20260501194105 | 10 | 163 | 3.2 | 4.8 | 0.00 | 0.05 | 0.05 | 61 | 1013.3 |
| 20260501193605 | 10 | 167 | 1.6 | 4.8 | 0.00 | 0.05 | 0.05 | 61 | 1013.3 |
| 20260501193105 | 11 | 146 | 0.0 | 3.2 | 0.00 | 0.05 | 0.05 | 60 | 1013.3 |
| 20260501192604 | 11 | 171 | 0.0 | 0.0 | 0.00 | 0.05 | 0.05 | 58 | 1013.2 |
| 20260501192104 | 11 | 172 | 0.0 | 0.0 | 0.00 | 0.05 | 0.05 | 60 | 1013.1 |
| 20260501191604 | 11 | 172 | 0.0 | 0.0 | 0.00 | 0.05 | 0.05 | 60 | 1013.0 |
| 20260501191105 | 11 | 172 | 0.0 | 0.0 | 0.00 | 0.05 | 0.05 | 60 | 1013.0 |
| 20260501190605 | 11 | 136 | 0.0 | 0.0 | 0.00 | 0.05 | 0.05 | 61 | 1012.9 |
| 20260501190105 | 11 | 164 | 0.0 | 0.0 | 0.00 | 0.05 | 0.05 | 62 | 1012.9 |
| 20260501185605 | 10 | 79 | 0.0 | 4.8 | 0.00 | 0.05 | 0.05 | 64 | 1013.0 |
| 20260501185104 | 10 | 20 | 0.0 | 0.0 | 0.00 | 0.05 | 0.05 | 62 | 1013.0 |
| 20260501184605 | 10 | 329 | 0.0 | 0.0 | 0.00 | 0.05 | 0.05 | 62 | 1012.9 |
| 20260501184105 | 10 | 327 | 0.0 | 0.0 | 0.00 | 0.05 | 0.05 | 61 | 1012.9 |
| 20260501183105 | 10 | 9 | 0.0 | 0.0 | 0.00 | 0.05 | 0.05 | 62 | 1012.9 |
| 20260501182605 | 9 | 48 | 0.0 | 0.0 | 0.00 | 0.05 | 0.05 | 63 | 1012.9 |
| 20260501181605 | 9 | 91 | 0.0 | 0.0 | 0.00 | 0.05 | 0.05 | 65 | 1012.9 |
| 20260501181104 | 9 | 50 | 0.0 | 0.0 | 0.00 | 0.05 | 0.05 | 64 | 1012.9 |
| 20260501180605 | 10 | 88 | 0.0 | 0.0 | 0.00 | 0.05 | 0.05 | 63 | 1012.9 |
| 20260501175605 | 10 | 69 | 0.0 | 0.0 | 0.00 | 0.05 | 0.05 | 62 | 1012.9 |
| 20260501175105 | 10 | 71 | 0.0 | 0.0 | 0.00 | 0.05 | 0.05 | 60 | 1012.8 |
| 20260501174605 | 10 | 59 | 1.6 | 4.8 | 0.00 | 0.05 | 0.05 | 59 | 1012.8 |
| 20260501174105 | 11 | 23 | 1.6 | 4.8 | 0.00 | 0.05 | 0.05 | 58 | 1012.7 |
| 20260501173605 | 11 | 22 | 0.0 | 0.0 | 0.00 | 0.05 | 0.05 | 58 | 1012.8 |
| 20260501173105 | 11 | 22 | 0.0 | 0.0 | 0.00 | 0.05 | 0.05 | 58 | 1012.7 |
| 20260501172605 | 11 | 22 | 0.0 | 0.0 | 0.00 | 0.05 | 0.05 | 58 | 1012.7 |
| 20260501172104 | 11 | 21 | 0.0 | 0.0 | 0.00 | 0.05 | 0.05 | 60 | 1012.7 |
| 20260501171604 | 11 | 349 | 0.0 | 0.0 | 0.00 | 0.05 | 0.05 | 61 | 1012.7 |